Time,TemperatureF,DewpointF,PressureIn,WindDirection,WindDirectionDegrees,WindSpeedMPH,WindSpeedGustMPH,Humidity,HourlyPrecipIn,Conditions,Clouds,dailyrainin,SoftwareType,DateUTC
2013-01-18 00:05:00,29.3,22.0,30.10,WSW,252,0.0,14.0,74,0.00,,,0.00,Wunderground v.1.13,2013-01-18 07:05:00,
2013-01-18 00:15:00,29.0,22.1,30.10,WSW,246,0.0,14.0,75,0.00,,,0.00,Wunderground v.1.13,2013-01-18 07:15:00,
2013-01-18 00:20:00,29.0,22.1,30.10,WSW,248,2.0,14.0,75,0.00,,,0.00,Wunderground v.1.13,2013-01-18 07:20:00,
2013-01-18 00:24:00,28.8,21.9,30.10,WSW,249,3.0,3.0,75,0.00,,,0.00,Wunderground v.1.13,2013-01-18 07:24:00,
2013-01-18 00:29:00,28.5,21.6,30.10,WSW,250,1.0,1.0,75,0.00,,,0.00,Wunderground v.1.13,2013-01-18 07:29:00,
2013-01-18 00:34:00,28.4,21.8,30.09,West,261,0.0,14.0,76,0.00,,,0.00,Wunderground v.1.13,2013-01-18 07:34:00,
2013-01-18 00:39:00,28.1,21.5,30.09,West,267,1.0,1.0,76,0.00,,,0.00,Wunderground v.1.13,2013-01-18 07:39:00,
2013-01-18 00:44:00,27.9,21.3,30.09,West,267,0.0,14.0,76,0.00,,,0.00,Wunderground v.1.13,2013-01-18 07:44:00,
2013-01-18 00:49:00,27.6,21.0,30.09,West,267,0.0,14.0,76,0.00,,,0.00,Wunderground v.1.13,2013-01-18 07:49:00,
2013-01-18 00:54:00,27.5,21.2,30.09,West,267,0.0,14.0,77,0.00,,,0.00,Wunderground v.1.13,2013-01-18 07:54:00,
2013-01-18 00:59:00,27.5,21.2,30.09,West,267,0.0,14.0,77,0.00,,,0.00,Wunderground v.1.13,2013-01-18 07:59:00,
2013-01-18 01:04:00,27.3,21.0,30.09,West,267,0.0,14.0,77,0.00,,,0.00,Wunderground v.1.13,2013-01-18 08:04:00,
2013-01-18 01:09:00,27.3,21.3,30.09,West,267,0.0,14.0,78,0.00,,,0.00,Wunderground v.1.13,2013-01-18 08:09:00,
2013-01-18 01:15:00,27.5,21.5,30.09,West,267,0.0,14.0,78,0.00,,,0.00,Wunderground v.1.13,2013-01-18 08:15:00,
2013-01-18 01:20:00,27.5,21.5,30.09,West,267,0.0,14.0,78,0.00,,,0.00,Wunderground v.1.13,2013-01-18 08:20:00,
2013-01-18 01:25:00,27.6,21.9,30.09,West,267,0.0,14.0,79,0.00,,,0.00,Wunderground v.1.13,2013-01-18 08:25:00,
2013-01-18 01:30:00,27.9,21.9,30.09,West,267,0.0,14.0,78,0.00,,,0.00,Wunderground v.1.13,2013-01-18 08:30:00,
2013-01-18 01:34:00,28.4,22.1,30.09,West,267,0.0,14.0,77,0.00,,,0.00,Wunderground v.1.13,2013-01-18 08:34:00,
2013-01-18 01:40:00,28.7,22.1,30.09,West,267,0.0,14.0,76,0.00,,,0.00,Wunderground v.1.13,2013-01-18 08:40:00,
2013-01-18 01:44:00,28.4,21.2,30.09,West,267,0.0,14.0,74,0.00,,,0.00,Wunderground v.1.13,2013-01-18 08:44:00,
2013-01-18 01:49:00,27.6,20.4,30.09,West,267,0.0,14.0,74,0.00,,,0.00,Wunderground v.1.13,2013-01-18 08:49:00,
2013-01-18 01:54:00,27.5,20.9,30.09,West,267,0.0,14.0,76,0.00,,,0.00,Wunderground v.1.13,2013-01-18 08:54:00,
2013-01-18 01:59:00,27.0,20.4,30.09,West,267,0.0,14.0,76,0.00,,,0.00,Wunderground v.1.13,2013-01-18 08:59:00,
2013-01-18 02:04:00,26.7,20.1,30.08,West,267,0.0,14.0,76,0.00,,,0.00,Wunderground v.1.13,2013-01-18 09:04:00,
2013-01-18 02:09:00,26.1,19.9,30.08,West,267,0.0,14.0,77,0.00,,,0.00,Wunderground v.1.13,2013-01-18 09:09:00,
2013-01-18 02:15:00,26.1,20.2,30.08,West,267,0.0,14.0,78,0.00,,,0.00,Wunderground v.1.13,2013-01-18 09:15:00,
2013-01-18 02:19:00,26.0,20.1,30.08,West,267,0.0,14.0,78,0.00,,,0.00,Wunderground v.1.13,2013-01-18 09:19:00,
2013-01-18 02:24:00,25.8,20.2,30.08,West,267,0.0,14.0,79,0.00,,,0.00,Wunderground v.1.13,2013-01-18 09:24:00,
2013-01-18 02:29:00,25.8,20.2,30.08,West,267,0.0,14.0,79,0.00,,,0.00,Wunderground v.1.13,2013-01-18 09:29:00,
2013-01-18 02:34:00,25.6,20.0,30.07,West,267,0.0,14.0,79,0.00,,,0.00,Wunderground v.1.13,2013-01-18 09:34:00,
2013-01-18 02:39:00,25.4,19.8,30.07,West,267,0.0,14.0,79,0.00,,,0.00,Wunderground v.1.13,2013-01-18 09:39:00,
2013-01-18 02:44:00,25.3,19.7,30.07,West,267,0.0,14.0,79,0.00,,,0.00,Wunderground v.1.13,2013-01-18 09:44:00,
2013-01-18 02:49:00,25.1,19.8,30.07,West,267,0.0,14.0,80,0.00,,,0.00,Wunderground v.1.13,2013-01-18 09:49:00,
2013-01-18 02:54:00,25.0,19.7,30.07,West,267,0.0,14.0,80,0.00,,,0.00,Wunderground v.1.13,2013-01-18 09:54:00,
2013-01-18 02:59:00,24.7,19.4,30.07,West,267,0.0,14.0,80,0.00,,,0.00,Wunderground v.1.13,2013-01-18 09:59:00,
2013-01-18 03:04:00,24.7,19.4,30.06,West,268,0.0,14.0,80,0.00,,,0.00,Wunderground v.1.13,2013-01-18 10:04:00,
2013-01-18 03:09:00,24.7,19.4,30.06,WSW,257,0.0,14.0,80,0.00,,,0.00,Wunderground v.1.13,2013-01-18 10:09:00,
2013-01-18 03:14:00,24.5,19.2,30.06,West,259,1.0,1.0,80,0.00,,,0.00,Wunderground v.1.13,2013-01-18 10:14:00,
2013-01-18 03:19:00,24.5,19.2,30.06,WSW,256,1.0,14.0,80,0.00,,,0.00,Wunderground v.1.13,2013-01-18 10:19:00,
2013-01-18 03:25:00,25.0,19.7,30.06,WSW,250,2.0,14.0,80,0.00,,,0.00,Wunderground v.1.13,2013-01-18 10:25:00,
2013-01-18 03:29:00,25.1,19.5,30.06,WSW,250,3.0,3.0,79,0.00,,,0.00,Wunderground v.1.13,2013-01-18 10:29:00,
2013-01-18 03:34:00,25.0,19.4,30.05,WSW,250,1.0,1.0,79,0.00,,,0.00,Wunderground v.1.13,2013-01-18 10:34:00,
2013-01-18 03:39:00,24.8,19.2,30.05,WSW,250,0.0,14.0,79,0.00,,,0.00,Wunderground v.1.13,2013-01-18 10:39:00,
2013-01-18 03:44:00,24.7,19.1,30.05,WSW,250,0.0,14.0,79,0.00,,,0.00,Wunderground v.1.13,2013-01-18 10:44:00,
2013-01-18 03:49:00,24.5,18.9,30.04,WSW,250,0.0,14.0,79,0.00,,,0.00,Wunderground v.1.13,2013-01-18 10:49:00,
2013-01-18 03:54:00,24.5,18.6,30.04,WSW,250,0.0,14.0,78,0.00,,,0.00,Wunderground v.1.13,2013-01-18 10:54:00,
2013-01-18 03:59:00,24.2,18.3,30.04,WSW,250,0.0,14.0,78,0.00,,,0.00,Wunderground v.1.13,2013-01-18 10:59:00,
2013-01-18 04:04:00,23.9,18.3,30.04,WSW,250,0.0,14.0,79,0.00,,,0.00,Wunderground v.1.13,2013-01-18 11:04:00,
2013-01-18 04:09:00,23.6,18.0,30.04,WSW,250,0.0,14.0,79,0.00,,,0.00,Wunderground v.1.13,2013-01-18 11:09:00,
2013-01-18 04:14:00,23.3,18.0,30.04,WSW,250,0.0,14.0,80,0.00,,,0.00,Wunderground v.1.13,2013-01-18 11:14:00,
2013-01-18 04:19:00,23.2,17.9,30.04,WSW,250,0.0,14.0,80,0.00,,,0.00,Wunderground v.1.13,2013-01-18 11:19:00,
2013-01-18 04:24:00,23.0,17.7,30.04,WSW,250,0.0,14.0,80,0.00,,,0.00,Wunderground v.1.13,2013-01-18 11:24:00,
2013-01-18 04:30:00,23.2,17.9,30.04,WSW,250,0.0,14.0,80,0.00,,,0.00,Wunderground v.1.13,2013-01-18 11:30:00,
2013-01-18 04:34:00,23.6,18.3,30.03,WSW,249,0.0,14.0,80,0.00,,,0.00,Wunderground v.1.13,2013-01-18 11:34:00,
2013-01-18 04:39:00,24.1,18.2,30.03,WSW,251,0.0,14.0,78,0.00,,,0.00,Wunderground v.1.13,2013-01-18 11:39:00,
2013-01-18 04:44:00,24.5,18.3,30.03,WSW,251,0.0,14.0,77,0.00,,,0.00,Wunderground v.1.13,2013-01-18 11:44:00,
2013-01-18 04:49:00,24.8,18.3,30.03,WSW,251,0.0,14.0,76,0.00,,,0.00,Wunderground v.1.13,2013-01-18 11:49:00,
2013-01-18 04:54:00,25.4,18.6,30.03,WSW,250,0.0,14.0,75,0.00,,,0.00,Wunderground v.1.13,2013-01-18 11:54:00,
2013-01-18 04:59:00,26.4,18.6,30.03,WSW,252,1.0,1.0,72,0.00,,,0.00,Wunderground v.1.13,2013-01-18 11:59:00,
2013-01-18 05:05:00,27.0,18.8,30.02,WNW,287,2.0,2.0,71,0.00,,,0.00,Wunderground v.1.13,2013-01-18 12:05:00,
2013-01-18 05:15:00,27.5,18.7,30.03,West,277,1.0,14.0,69,0.00,,,0.00,Wunderground v.1.13,2013-01-18 12:15:00,
2013-01-18 05:20:00,27.6,18.8,30.03,West,280,2.0,14.0,69,0.00,,,0.00,Wunderground v.1.13,2013-01-18 12:20:00,
2013-01-18 05:25:00,27.5,18.7,30.03,West,280,1.0,1.0,69,0.00,,,0.00,Wunderground v.1.13,2013-01-18 12:25:00,
2013-01-18 05:30:00,27.2,18.4,30.03,WSW,254,0.0,14.0,69,0.00,,,0.00,Wunderground v.1.13,2013-01-18 12:30:00,
2013-01-18 05:35:00,27.2,18.0,30.02,West,272,0.0,14.0,68,0.00,,,0.00,Wunderground v.1.13,2013-01-18 12:35:00,
2013-01-18 05:40:00,27.3,17.8,30.02,NW,311,0.0,14.0,67,0.00,,,0.00,Wunderground v.1.13,2013-01-18 12:40:00,
2013-01-18 05:45:00,27.6,17.4,30.02,NW,306,0.0,14.0,65,0.00,,,0.00,Wunderground v.1.13,2013-01-18 12:45:00,
2013-01-18 05:50:00,27.6,17.0,30.02,NW,306,0.0,14.0,64,0.00,,,0.00,Wunderground v.1.13,2013-01-18 12:50:00,
2013-01-18 05:55:00,27.5,16.9,30.02,NW,305,0.0,14.0,64,0.00,,,0.00,Wunderground v.1.13,2013-01-18 12:55:00,
2013-01-18 06:00:00,27.3,16.7,30.02,WNW,303,0.0,14.0,64,0.00,,,0.00,Wunderground v.1.13,2013-01-18 13:00:00,
2013-01-18 06:05:00,27.0,16.4,30.02,WNW,303,0.0,14.0,64,0.00,,,0.00,Wunderground v.1.13,2013-01-18 13:05:00,
2013-01-18 06:10:00,26.9,16.3,30.02,WNW,287,0.0,14.0,64,0.00,,,0.00,Wunderground v.1.13,2013-01-18 13:10:00,
2013-01-18 06:15:00,27.3,16.4,30.03,WNW,287,0.0,14.0,63,0.00,,,0.00,Wunderground v.1.13,2013-01-18 13:15:00,
2013-01-18 06:25:00,27.0,16.1,30.03,WNW,287,0.0,14.0,63,0.00,,,0.00,Wunderground v.1.13,2013-01-18 13:25:00,
2013-01-18 06:30:00,26.6,15.7,30.03,WNW,287,0.0,14.0,63,0.00,,,0.00,Wunderground v.1.13,2013-01-18 13:30:00,
2013-01-18 06:35:00,26.1,15.6,30.03,WNW,287,0.0,14.0,64,0.00,,,0.00,Wunderground v.1.13,2013-01-18 13:35:00,
2013-01-18 06:45:00,25.4,15.3,30.03,WNW,287,0.0,14.0,65,0.00,,,0.00,Wunderground v.1.13,2013-01-18 13:45:00,
2013-01-18 06:50:00,25.3,15.2,30.03,WNW,287,0.0,14.0,65,0.00,,,0.00,Wunderground v.1.13,2013-01-18 13:50:00,
2013-01-18 07:00:00,25.6,15.5,30.03,WNW,287,0.0,14.0,65,0.00,,,0.00,Wunderground v.1.13,2013-01-18 14:00:00,
2013-01-18 07:05:00,25.4,15.3,30.03,WNW,287,0.0,14.0,65,0.00,,,0.00,Wunderground v.1.13,2013-01-18 14:05:00,
2013-01-18 07:10:00,25.4,15.3,30.03,WNW,287,0.0,14.0,65,0.00,,,0.00,Wunderground v.1.13,2013-01-18 14:10:00,
2013-01-18 07:15:00,25.4,15.3,30.03,WNW,283,0.0,14.0,65,0.00,,,0.00,Wunderground v.1.13,2013-01-18 14:15:00,
2013-01-18 07:25:00,25.3,15.5,30.03,WSW,253,2.0,14.0,66,0.00,,,0.00,Wunderground v.1.13,2013-01-18 14:25:00,
2013-01-18 07:30:00,25.1,15.7,30.03,WSW,250,4.0,4.0,67,0.00,,,0.00,Wunderground v.1.13,2013-01-18 14:30:00,
2013-01-18 07:35:00,25.0,15.6,30.03,West,261,2.0,2.0,67,0.00,,,0.00,Wunderground v.1.13,2013-01-18 14:35:00,
2013-01-18 07:40:00,24.7,15.3,30.03,West,263,0.0,14.0,67,0.00,,,0.00,Wunderground v.1.13,2013-01-18 14:40:00,
2013-01-18 07:45:00,24.7,15.6,30.03,West,263,0.0,14.0,68,0.00,,,0.00,Wunderground v.1.13,2013-01-18 14:45:00,
2013-01-18 07:50:00,24.8,15.7,30.03,West,263,0.0,14.0,68,0.00,,,0.00,Wunderground v.1.13,2013-01-18 14:50:00,
2013-01-18 07:55:00,25.1,15.7,30.03,West,269,0.0,14.0,67,0.00,,,0.00,Wunderground v.1.13,2013-01-18 14:55:00,
2013-01-18 08:00:00,25.4,16.0,30.04,West,265,1.0,14.0,67,0.00,,,0.00,Wunderground v.1.13,2013-01-18 15:00:00,
2013-01-18 08:05:00,25.7,15.9,30.04,West,265,2.0,2.0,66,0.00,,,0.00,Wunderground v.1.13,2013-01-18 15:05:00,
2013-01-18 08:10:00,26.1,16.3,30.04,West,271,1.0,1.0,66,0.00,,,0.00,Wunderground v.1.13,2013-01-18 15:10:00,
2013-01-18 08:15:00,26.4,16.6,30.05,West,264,2.0,2.0,66,0.00,,,0.00,Wunderground v.1.13,2013-01-18 15:15:00,
2013-01-18 08:20:00,26.6,16.8,30.05,West,267,2.0,2.0,66,0.00,,,0.00,Wunderground v.1.13,2013-01-18 15:20:00,
2013-01-18 08:25:00,26.7,16.9,30.05,WSW,242,3.0,3.0,66,0.00,,,0.00,Wunderground v.1.13,2013-01-18 15:25:00,
2013-01-18 08:30:00,27.2,17.3,30.05,WSW,251,5.0,5.0,66,0.00,,,0.00,Wunderground v.1.13,2013-01-18 15:30:00,
2013-01-18 08:35:00,27.3,17.4,30.05,WSW,241,6.0,14.0,66,0.00,,,0.00,Wunderground v.1.13,2013-01-18 15:35:00,
2013-01-18 08:40:00,27.6,17.7,30.05,WSW,244,7.0,7.0,66,0.00,,,0.00,Wunderground v.1.13,2013-01-18 15:40:00,
2013-01-18 08:45:00,27.8,17.9,30.05,WSW,256,8.0,14.0,66,0.00,,,0.00,Wunderground v.1.13,2013-01-18 15:45:00,
2013-01-18 08:50:00,28.2,18.3,30.05,WSW,246,8.0,8.0,66,0.00,,,0.00,Wunderground v.1.13,2013-01-18 15:50:00,
2013-01-18 08:55:00,28.8,18.9,30.05,SW,236,7.0,14.0,66,0.00,,,0.00,Wunderground v.1.13,2013-01-18 15:55:00,
2013-01-18 09:00:00,29.0,19.4,30.05,WSW,249,7.0,14.0,67,0.00,,,0.00,Wunderground v.1.13,2013-01-18 16:00:00,
2013-01-18 09:05:00,29.5,19.9,30.05,West,275,4.0,4.0,67,0.00,,,0.00,Wunderground v.1.13,2013-01-18 16:05:00,
2013-01-18 09:10:00,30.4,20.4,30.05,WSW,248,1.0,14.0,66,0.00,,,0.00,Wunderground v.1.13,2013-01-18 16:10:00,
2013-01-18 09:15:00,31.2,20.8,30.05,SW,236,4.0,14.0,65,0.00,,,0.00,Wunderground v.1.13,2013-01-18 16:15:00,
2013-01-18 09:20:00,31.8,21.0,30.05,West,259,6.0,6.0,64,0.00,,,0.00,Wunderground v.1.13,2013-01-18 16:20:00,
2013-01-18 09:25:00,32.4,21.6,30.05,WSW,251,5.0,14.0,64,0.00,,,0.00,Wunderground v.1.13,2013-01-18 16:25:00,
2013-01-18 09:30:00,33.1,21.5,30.05,WSW,253,5.0,5.0,62,0.00,,,0.00,Wunderground v.1.13,2013-01-18 16:30:00,
2013-01-18 09:35:00,33.5,21.5,30.05,WSW,246,5.0,5.0,61,0.00,,,0.00,Wunderground v.1.13,2013-01-18 16:35:00,
2013-01-18 09:40:00,34.0,21.6,30.05,West,259,5.0,5.0,60,0.00,,,0.00,Wunderground v.1.13,2013-01-18 16:40:00,
2013-01-18 09:45:00,34.3,21.8,30.05,West,263,5.0,5.0,60,0.00,,,0.00,Wunderground v.1.13,2013-01-18 16:45:00,
2013-01-18 09:50:00,34.7,22.2,30.04,West,275,5.0,5.0,60,0.00,,,0.00,Wunderground v.1.13,2013-01-18 16:50:00,
2013-01-18 09:55:00,35.0,22.5,30.04,WSW,254,4.0,4.0,60,0.00,,,0.00,Wunderground v.1.13,2013-01-18 16:55:00,
2013-01-18 10:00:00,35.5,22.6,30.04,West,259,5.0,5.0,59,0.00,,,0.00,Wunderground v.1.13,2013-01-18 17:00:00,
2013-01-18 10:05:00,35.9,22.5,30.04,West,269,4.0,14.0,58,0.00,,,0.00,Wunderground v.1.13,2013-01-18 17:05:00,
2013-01-18 10:10:00,36.8,23.0,30.04,WSW,257,2.0,2.0,57,0.00,,,0.00,Wunderground v.1.13,2013-01-18 17:10:00,
2013-01-18 10:15:00,37.9,22.7,30.04,West,273,2.0,14.0,54,0.00,,,0.00,Wunderground v.1.13,2013-01-18 17:15:00,
2013-01-18 10:20:00,39.6,22.9,30.04,WSW,255,2.0,14.0,51,0.00,,,0.00,Wunderground v.1.13,2013-01-18 17:20:00,
2013-01-18 10:25:00,40.9,22.7,30.04,WSW,250,2.0,14.0,48,0.00,,,0.00,Wunderground v.1.13,2013-01-18 17:25:00,
2013-01-18 10:30:00,41.9,21.5,30.04,West,270,4.0,14.0,44,0.00,,,0.00,Wunderground v.1.13,2013-01-18 17:30:00,
2013-01-18 10:35:00,42.8,22.4,30.02,WSW,245,5.0,5.0,44,0.00,,,0.00,Wunderground v.1.13,2013-01-18 17:35:00,
2013-01-18 10:40:00,44.2,19.5,30.02,WNW,300,5.0,14.0,37,0.00,,,0.00,Wunderground v.1.13,2013-01-18 17:40:00,
2013-01-18 10:45:00,47.3,15.0,30.02,WNW,299,5.0,14.0,27,0.00,,,0.00,Wunderground v.1.13,2013-01-18 17:45:00,
2013-01-18 10:50:00,48.2,14.0,30.02,WNW,284,8.0,14.0,25,0.00,,,0.00,Wunderground v.1.13,2013-01-18 17:50:00,
2013-01-18 10:55:00,48.5,15.1,30.02,WNW,298,10.0,14.0,26,0.00,,,0.00,Wunderground v.1.13,2013-01-18 17:55:00,
2013-01-18 11:00:00,48.6,14.3,30.01,West,279,10.0,18.0,25,0.00,,,0.00,Wunderground v.1.13,2013-01-18 18:00:00,
2013-01-18 11:05:00,48.6,15.2,30.01,WNW,302,10.0,10.0,26,0.00,,,0.00,Wunderground v.1.13,2013-01-18 18:05:00,
2013-01-18 11:10:00,49.2,15.7,30.01,NW,308,7.0,14.0,26,0.00,,,0.00,Wunderground v.1.13,2013-01-18 18:10:00,
2013-01-18 11:15:00,49.6,15.2,30.01,WNW,290,6.0,6.0,25,0.00,,,0.00,Wunderground v.1.13,2013-01-18 18:15:00,
2013-01-18 11:20:00,49.8,15.3,29.99,WNW,300,8.0,8.0,25,0.00,,,0.00,Wunderground v.1.13,2013-01-18 18:20:00,
2013-01-18 11:25:00,50.1,15.6,29.99,WNW,284,9.0,14.0,25,0.00,,,0.00,Wunderground v.1.13,2013-01-18 18:25:00,
2013-01-18 11:30:00,50.5,15.9,29.99,NW,321,7.0,14.0,25,0.00,,,0.00,Wunderground v.1.13,2013-01-18 18:30:00,
2013-01-18 11:35:00,50.8,15.2,29.98,WNW,293,7.0,17.0,24,0.00,,,0.00,Wunderground v.1.13,2013-01-18 18:35:00,
2013-01-18 11:40:00,51.0,15.4,29.98,North,351,9.0,9.0,24,0.00,,,0.00,Wunderground v.1.13,2013-01-18 18:40:00,
2013-01-18 11:45:00,51.0,15.4,29.98,NNW,342,12.0,14.0,24,0.00,,,0.00,Wunderground v.1.13,2013-01-18 18:45:00,
2013-01-18 11:50:00,51.1,14.5,29.97,WNW,299,12.0,14.0,23,0.00,,,0.00,Wunderground v.1.13,2013-01-18 18:50:00,
2013-01-18 11:55:00,51.4,14.8,29.97,NW,304,13.0,13.0,23,0.00,,,0.00,Wunderground v.1.13,2013-01-18 18:55:00,
2013-01-18 12:00:00,51.9,15.2,29.97,NNW,327,12.0,14.0,23,0.00,,,0.00,Wunderground v.1.13,2013-01-18 19:00:00,
2013-01-18 12:05:00,52.3,14.5,29.96,NNW,331,11.0,11.0,22,0.00,,,0.00,Wunderground v.1.13,2013-01-18 19:05:00,
2013-01-18 12:10:00,52.8,14.9,29.96,NNW,327,11.0,14.0,22,0.00,,,0.00,Wunderground v.1.13,2013-01-18 19:10:00,
2013-01-18 12:15:00,53.2,15.3,29.96,NW,326,9.0,9.0,22,0.00,,,0.00,Wunderground v.1.13,2013-01-18 19:15:00,
2013-01-18 12:25:00,53.2,14.2,29.95,NW,315,13.0,13.0,21,0.00,,,0.00,Wunderground v.1.13,2013-01-18 19:25:00,
2013-01-18 12:30:00,53.5,15.5,29.95,NNW,327,13.0,13.0,22,0.00,,,0.00,Wunderground v.1.13,2013-01-18 19:30:00,
2013-01-18 12:35:00,53.8,14.7,29.95,NW,325,12.0,17.0,21,0.00,,,0.00,Wunderground v.1.13,2013-01-18 19:35:00,
2013-01-18 12:40:00,54.1,15.0,29.95,NNW,327,12.0,20.0,21,0.00,,,0.00,Wunderground v.1.13,2013-01-18 19:40:00,
2013-01-18 12:45:00,54.4,15.2,29.95,NW,319,12.0,15.0,21,0.00,,,0.00,Wunderground v.1.13,2013-01-18 19:45:00,
2013-01-18 12:50:00,54.4,14.1,29.93,NW,313,12.0,14.0,20,0.00,,,0.00,Wunderground v.1.13,2013-01-18 19:50:00,
2013-01-18 12:55:00,54.7,14.4,29.93,WNW,298,12.0,12.0,20,0.00,,,0.00,Wunderground v.1.13,2013-01-18 19:55:00,
2013-01-18 13:00:00,55.1,14.7,29.93,NW,310,9.0,14.0,20,0.00,,,0.00,Wunderground v.1.13,2013-01-18 20:00:00,
2013-01-18 13:05:00,55.3,16.0,29.93,NNW,327,8.0,8.0,21,0.00,,,0.00,Wunderground v.1.13,2013-01-18 20:05:00,
2013-01-18 13:10:00,55.6,15.1,29.93,NNW,331,9.0,9.0,20,0.00,,,0.00,Wunderground v.1.13,2013-01-18 20:10:00,
2013-01-18 13:20:00,55.6,15.1,29.93,WNW,287,9.0,14.0,20,0.00,,,0.00,Wunderground v.1.13,2013-01-18 20:20:00,
2013-01-18 13:25:00,55.6,13.9,29.93,NW,322,9.0,14.0,19,0.00,,,0.00,Wunderground v.1.13,2013-01-18 20:25:00,
2013-01-18 13:30:00,55.7,15.2,29.93,NNW,338,8.0,8.0,20,0.00,,,0.00,Wunderground v.1.13,2013-01-18 20:30:00,
2013-01-18 13:35:00,56.0,14.3,29.93,WNW,290,7.0,14.0,19,0.00,,,0.00,Wunderground v.1.13,2013-01-18 20:35:00,
2013-01-18 13:40:00,56.0,15.4,29.93,NW,306,7.0,7.0,20,0.00,,,0.00,Wunderground v.1.13,2013-01-18 20:40:00,
2013-01-18 13:45:00,56.2,14.4,29.93,WNW,289,6.0,14.0,19,0.00,,,0.00,Wunderground v.1.13,2013-01-18 20:45:00,
2013-01-18 13:50:00,56.5,14.7,29.93,NW,304,5.0,5.0,19,0.00,,,0.00,Wunderground v.1.13,2013-01-18 20:50:00,
2013-01-18 14:00:00,56.7,13.6,29.93,WNW,298,6.0,6.0,18,0.00,,,0.00,Wunderground v.1.13,2013-01-18 21:00:00,
2013-01-18 14:05:00,56.6,13.5,29.93,NW,321,6.0,14.0,18,0.00,,,0.00,Wunderground v.1.13,2013-01-18 21:05:00,
2013-01-18 14:10:00,56.7,13.6,29.93,WNW,302,7.0,7.0,18,0.00,,,0.00,Wunderground v.1.13,2013-01-18 21:10:00,
2013-01-18 14:15:00,56.7,13.6,29.93,WNW,298,6.0,6.0,18,0.00,,,0.00,Wunderground v.1.13,2013-01-18 21:15:00,
2013-01-18 14:20:00,57.0,13.8,29.92,NW,304,5.0,5.0,18,0.00,,,0.00,Wunderground v.1.13,2013-01-18 21:20:00,
2013-01-18 14:30:00,57.2,14.0,29.92,NW,320,6.0,14.0,18,0.00,,,0.00,Wunderground v.1.13,2013-01-18 21:30:00,
2013-01-18 14:35:00,57.5,14.3,29.91,NW,307,4.0,4.0,18,0.00,,,0.00,Wunderground v.1.13,2013-01-18 21:35:00,
2013-01-18 14:40:00,57.8,14.5,29.91,West,267,2.0,2.0,18,0.00,,,0.00,Wunderground v.1.13,2013-01-18 21:40:00,
2013-01-18 14:45:00,57.6,13.0,29.91,NW,317,4.0,14.0,17,0.00,,,0.00,Wunderground v.1.13,2013-01-18 21:45:00,
2013-01-18 14:50:00,57.6,13.0,29.91,West,280,5.0,5.0,17,0.00,,,0.00,Wunderground v.1.13,2013-01-18 21:50:00,
2013-01-18 15:00:00,57.8,13.2,29.91,West,260,3.0,3.0,17,0.00,,,0.00,Wunderground v.1.13,2013-01-18 22:00:00,
2013-01-18 15:05:00,58.0,14.7,29.91,WNW,303,3.0,3.0,18,0.00,,,0.00,Wunderground v.1.13,2013-01-18 22:05:00,
2013-01-18 15:10:00,58.0,13.4,29.91,NW,304,2.0,2.0,17,0.00,,,0.00,Wunderground v.1.13,2013-01-18 22:10:00,
2013-01-18 15:20:00,58.3,14.9,29.91,WSW,248,1.0,14.0,18,0.00,,,0.00,Wunderground v.1.13,2013-01-18 22:20:00,
2013-01-18 15:25:00,58.1,13.4,29.91,West,275,1.0,14.0,17,0.00,,,0.00,Wunderground v.1.13,2013-01-18 22:25:00,
2013-01-18 15:30:00,58.1,13.4,29.91,WSW,242,1.0,14.0,17,0.00,,,0.00,Wunderground v.1.13,2013-01-18 22:30:00,
2013-01-18 15:35:00,58.1,14.8,29.91,WSW,254,1.0,1.0,18,0.00,,,0.00,Wunderground v.1.13,2013-01-18 22:35:00,
2013-01-18 15:40:00,58.0,14.7,29.91,NW,311,1.0,1.0,18,0.00,,,0.00,Wunderground v.1.13,2013-01-18 22:40:00,
2013-01-18 15:45:00,57.8,14.5,29.91,NW,304,1.0,1.0,18,0.00,,,0.00,Wunderground v.1.13,2013-01-18 22:45:00,
2013-01-18 15:50:00,57.6,14.3,29.91,WNW,303,0.0,14.0,18,0.00,,,0.00,Wunderground v.1.13,2013-01-18 22:50:00,
2013-01-18 15:55:00,57.6,14.3,29.91,WNW,302,0.0,14.0,18,0.00,,,0.00,Wunderground v.1.13,2013-01-18 22:55:00,
2013-01-18 16:00:00,57.5,14.3,29.91,WNW,299,0.0,14.0,18,0.00,,,0.00,Wunderground v.1.13,2013-01-18 23:00:00,
2013-01-18 16:05:00,57.3,15.3,29.91,WNW,299,0.0,14.0,19,0.00,,,0.00,Wunderground v.1.13,2013-01-18 23:05:00,
2013-01-18 16:10:00,57.0,15.1,29.91,WNW,299,0.0,14.0,19,0.00,,,0.00,Wunderground v.1.13,2013-01-18 23:10:00,
2013-01-18 16:15:00,56.6,15.9,29.91,WNW,299,0.0,14.0,20,0.00,,,0.00,Wunderground v.1.13,2013-01-18 23:15:00,
2013-01-18 16:20:00,56.2,15.6,29.91,WNW,299,0.0,14.0,20,0.00,,,0.00,Wunderground v.1.13,2013-01-18 23:20:00,
2013-01-18 16:25:00,55.9,16.5,29.91,WNW,284,0.0,14.0,21,0.00,,,0.00,Wunderground v.1.13,2013-01-18 23:25:00,
2013-01-18 16:30:00,55.3,16.0,29.91,West,268,1.0,1.0,21,0.00,,,0.00,Wunderground v.1.13,2013-01-18 23:30:00,
2013-01-18 16:35:00,54.4,16.3,29.91,West,268,0.0,14.0,22,0.00,,,0.00,Wunderground v.1.13,2013-01-18 23:35:00,
2013-01-18 16:40:00,53.5,16.6,29.91,West,275,0.0,14.0,23,0.00,,,0.00,Wunderground v.1.13,2013-01-18 23:40:00,
2013-01-18 16:45:00,52.8,16.0,29.91,WNW,284,0.0,14.0,23,0.00,,,0.00,Wunderground v.1.13,2013-01-18 23:45:00,
2013-01-18 16:50:00,52.2,15.5,29.91,WNW,284,0.0,14.0,23,0.00,,,0.00,Wunderground v.1.13,2013-01-18 23:50:00,
2013-01-18 16:55:00,51.6,15.9,29.91,WNW,284,0.0,14.0,24,0.00,,,0.00,Wunderground v.1.13,2013-01-18 23:55:00,
2013-01-18 17:00:00,51.0,15.4,29.91,WNW,284,0.0,14.0,24,0.00,,,0.00,Wunderground v.1.13,2013-01-19 00:00:00,
2013-01-18 17:05:00,50.5,15.9,29.91,WNW,284,0.0,14.0,25,0.00,,,0.00,Wunderground v.1.13,2013-01-19 00:05:00,
2013-01-18 17:10:00,49.4,15.9,29.91,WNW,284,0.0,14.0,26,0.00,,,0.00,Wunderground v.1.13,2013-01-19 00:10:00,
2013-01-18 17:15:00,48.3,15.8,29.91,WNW,284,0.0,14.0,27,0.00,,,0.00,Wunderground v.1.13,2013-01-19 00:15:00,
2013-01-18 17:20:00,47.0,15.5,29.91,WNW,284,0.0,14.0,28,0.00,,,0.00,Wunderground v.1.13,2013-01-19 00:20:00,
2013-01-18 17:25:00,46.1,15.6,29.91,WNW,284,0.0,14.0,29,0.00,,,0.00,Wunderground v.1.13,2013-01-19 00:25:00,
2013-01-18 17:30:00,45.4,15.7,29.91,WNW,284,0.0,14.0,30,0.00,,,0.00,Wunderground v.1.13,2013-01-19 00:30:00,
2013-01-18 17:35:00,44.6,15.0,29.91,WNW,284,0.0,14.0,30,0.00,,,0.00,Wunderground v.1.13,2013-01-19 00:35:00,
2013-01-18 17:40:00,43.9,15.2,29.91,WNW,284,0.0,14.0,31,0.00,,,0.00,Wunderground v.1.13,2013-01-19 00:40:00,
2013-01-18 17:45:00,42.6,15.5,29.91,WNW,284,0.0,14.0,33,0.00,,,0.00,Wunderground v.1.13,2013-01-19 00:45:00,
2013-01-18 17:50:00,41.5,15.2,29.91,WNW,284,0.0,14.0,34,0.00,,,0.00,Wunderground v.1.13,2013-01-19 00:50:00,
2013-01-18 17:55:00,40.6,16.3,29.91,WNW,284,0.0,14.0,37,0.00,,,0.00,Wunderground v.1.13,2013-01-19 00:55:00,
2013-01-18 18:00:00,40.3,16.7,29.91,WNW,284,0.0,14.0,38,0.00,,,0.00,Wunderground v.1.13,2013-01-19 01:00:00,
2013-01-18 18:05:00,40.3,15.4,29.91,WNW,284,0.0,14.0,36,0.00,,,0.00,Wunderground v.1.13,2013-01-19 01:05:00,
2013-01-18 18:10:00,41.8,16.1,29.91,WNW,284,0.0,14.0,35,0.00,,,0.00,Wunderground v.1.13,2013-01-19 01:10:00,
2013-01-18 18:15:00,41.8,17.4,29.91,WNW,284,0.0,14.0,37,0.00,,,0.00,Wunderground v.1.13,2013-01-19 01:15:00,
2013-01-18 18:20:00,42.8,16.3,29.91,West,269,0.0,14.0,34,0.00,,,0.00,Wunderground v.1.13,2013-01-19 01:20:00,
2013-01-18 18:30:00,44.9,15.3,29.91,West,266,0.0,14.0,30,0.00,,,0.00,Wunderground v.1.13,2013-01-19 01:30:00,
2013-01-18 18:35:00,44.9,16.0,29.91,West,266,0.0,14.0,31,0.00,,,0.00,Wunderground v.1.13,2013-01-19 01:35:00,
2013-01-18 18:40:00,44.5,15.7,29.91,West,266,0.0,14.0,31,0.00,,,0.00,Wunderground v.1.13,2013-01-19 01:40:00,
2013-01-18 18:45:00,44.1,16.1,29.91,West,272,0.0,14.0,32,0.00,,,0.00,Wunderground v.1.13,2013-01-19 01:45:00,
2013-01-18 18:50:00,43.5,16.3,29.91,West,272,0.0,14.0,33,0.00,,,0.00,Wunderground v.1.13,2013-01-19 01:50:00,
2013-01-18 18:55:00,42.6,16.8,29.91,West,272,0.0,14.0,35,0.00,,,0.00,Wunderground v.1.13,2013-01-19 01:55:00,
2013-01-18 19:00:00,43.2,15.3,29.91,WNW,283,0.0,14.0,32,0.00,,,0.00,Wunderground v.1.13,2013-01-19 02:00:00,
2013-01-18 19:05:00,44.2,15.4,29.91,West,276,0.0,14.0,31,0.00,,,0.00,Wunderground v.1.13,2013-01-19 02:05:00,
2013-01-18 19:10:00,44.2,16.2,29.91,West,273,0.0,14.0,32,0.00,,,0.00,Wunderground v.1.13,2013-01-19 02:10:00,
2013-01-18 19:20:00,44.2,15.4,29.91,West,275,0.0,14.0,31,0.00,,,0.00,Wunderground v.1.13,2013-01-19 02:20:00,
2013-01-18 19:25:00,44.1,15.3,29.91,West,273,0.0,14.0,31,0.00,,,0.00,Wunderground v.1.13,2013-01-19 02:25:00,
2013-01-18 19:30:00,43.6,16.3,29.91,West,273,0.0,14.0,33,0.00,,,0.00,Wunderground v.1.13,2013-01-19 02:30:00,
2013-01-18 19:35:00,43.2,16.0,29.91,West,269,1.0,14.0,33,0.00,,,0.00,Wunderground v.1.13,2013-01-19 02:35:00,
2013-01-18 19:40:00,44.6,14.3,29.91,NW,309,3.0,3.0,29,0.00,,,0.00,Wunderground v.1.13,2013-01-19 02:40:00,
2013-01-18 19:45:00,47.3,15.0,29.91,WNW,300,5.0,5.0,27,0.00,,,0.00,Wunderground v.1.13,2013-01-19 02:45:00,
2013-01-18 19:55:00,46.7,15.3,29.90,NW,315,2.0,2.0,28,0.00,,,0.00,Wunderground v.1.13,2013-01-19 02:55:00,
2013-01-18 20:00:00,45.2,15.6,29.90,NW,308,0.0,14.0,30,0.00,,,0.00,Wunderground v.1.13,2013-01-19 03:00:00,
2013-01-18 20:05:00,44.2,16.2,29.91,WNW,296,0.0,14.0,32,0.00,,,0.00,Wunderground v.1.13,2013-01-19 03:05:00,
2013-01-18 20:10:00,43.6,15.6,29.91,WNW,298,0.0,14.0,32,0.00,,,0.00,Wunderground v.1.13,2013-01-19 03:10:00,
2013-01-18 20:15:00,42.8,16.3,29.91,WNW,284,0.0,14.0,34,0.00,,,0.00,Wunderground v.1.13,2013-01-19 03:15:00,
2013-01-18 20:20:00,42.6,16.8,29.91,West,273,0.0,14.0,35,0.00,,,0.00,Wunderground v.1.13,2013-01-19 03:20:00,
2013-01-18 20:25:00,42.6,16.8,29.91,NW,305,1.0,1.0,35,0.00,,,0.00,Wunderground v.1.13,2013-01-19 03:25:00,
2013-01-18 20:30:00,42.5,16.7,29.91,NW,304,0.0,14.0,35,0.00,,,0.00,Wunderground v.1.13,2013-01-19 03:30:00,
2013-01-18 20:35:00,42.1,17.0,29.91,NW,304,0.0,14.0,36,0.00,,,0.00,Wunderground v.1.13,2013-01-19 03:35:00,
2013-01-18 20:45:00,42.1,16.4,29.91,WNW,287,0.0,14.0,35,0.00,,,0.00,Wunderground v.1.13,2013-01-19 03:45:00,
2013-01-18 20:55:00,42.9,16.4,29.91,WNW,282,1.0,1.0,34,0.00,,,0.00,Wunderground v.1.13,2013-01-19 03:55:00,
2013-01-18 21:00:00,42.3,17.2,29.91,West,279,0.0,14.0,36,0.00,,,0.00,Wunderground v.1.13,2013-01-19 04:00:00,
2013-01-18 21:05:00,41.6,17.8,29.91,West,279,0.0,14.0,38,0.00,,,0.00,Wunderground v.1.13,2013-01-19 04:05:00,
2013-01-18 21:10:00,40.6,18.1,29.91,West,279,0.0,14.0,40,0.00,,,0.00,Wunderground v.1.13,2013-01-19 04:10:00,
2013-01-18 21:15:00,39.9,18.1,29.91,West,279,0.0,14.0,41,0.00,,,0.00,Wunderground v.1.13,2013-01-19 04:15:00,
2013-01-18 21:20:00,39.3,18.1,29.91,West,279,0.0,14.0,42,0.00,,,0.00,Wunderground v.1.13,2013-01-19 04:20:00,
2013-01-18 21:25:00,38.9,18.3,29.91,West,279,0.0,14.0,43,0.00,,,0.00,Wunderground v.1.13,2013-01-19 04:25:00,
2013-01-18 21:35:00,38.6,18.0,29.90,West,279,0.0,14.0,43,0.00,,,0.00,Wunderground v.1.13,2013-01-19 04:35:00,
2013-01-18 21:40:00,38.5,17.9,29.90,West,279,0.0,14.0,43,0.00,,,0.00,Wunderground v.1.13,2013-01-19 04:40:00,
2013-01-18 21:45:00,38.5,17.9,29.90,West,279,0.0,14.0,43,0.00,,,0.00,Wunderground v.1.13,2013-01-19 04:45:00,
2013-01-18 21:50:00,38.0,18.0,29.90,West,279,0.0,14.0,44,0.00,,,0.00,Wunderground v.1.13,2013-01-19 04:50:00,
2013-01-18 21:55:00,37.3,18.9,29.90,West,279,0.0,14.0,47,0.00,,,0.00,Wunderground v.1.13,2013-01-19 04:55:00,
2013-01-18 22:05:00,36.8,18.4,29.91,West,279,0.0,14.0,47,0.00,,,0.00,Wunderground v.1.13,2013-01-19 05:05:00,
2013-01-18 22:10:00,37.0,18.1,29.91,West,279,0.0,14.0,46,0.00,,,0.00,Wunderground v.1.13,2013-01-19 05:10:00,
2013-01-18 22:15:00,37.2,18.3,29.91,West,279,0.0,14.0,46,0.00,,,0.00,Wunderground v.1.13,2013-01-19 05:15:00,
2013-01-18 22:20:00,37.0,18.6,29.91,West,279,0.0,14.0,47,0.00,,,0.00,Wunderground v.1.13,2013-01-19 05:20:00,
2013-01-18 22:25:00,36.8,18.4,29.91,West,279,0.0,14.0,47,0.00,,,0.00,Wunderground v.1.13,2013-01-19 05:25:00,
2013-01-18 22:35:00,36.3,18.0,29.91,West,274,0.0,14.0,47,0.00,,,0.00,Wunderground v.1.13,2013-01-19 05:35:00,
2013-01-18 22:40:00,36.2,18.4,29.91,West,274,0.0,14.0,48,0.00,,,0.00,Wunderground v.1.13,2013-01-19 05:40:00,
2013-01-18 22:45:00,36.2,18.4,29.91,West,275,0.0,14.0,48,0.00,,,0.00,Wunderground v.1.13,2013-01-19 05:45:00,
2013-01-18 22:50:00,36.2,18.4,29.91,West,275,0.0,14.0,48,0.00,,,0.00,Wunderground v.1.13,2013-01-19 05:50:00,
2013-01-18 22:55:00,36.2,18.4,29.91,West,275,0.0,14.0,48,0.00,,,0.00,Wunderground v.1.13,2013-01-19 05:55:00,
2013-01-18 23:00:00,35.9,18.1,29.91,West,275,0.0,14.0,48,0.00,,,0.00,Wunderground v.1.13,2013-01-19 06:00:00,
2013-01-18 23:05:00,35.9,18.1,29.91,WNW,283,0.0,14.0,48,0.00,,,0.00,Wunderground v.1.13,2013-01-19 06:05:00,
2013-01-18 23:10:00,36.3,18.0,29.91,WNW,283,0.0,14.0,47,0.00,,,0.00,Wunderground v.1.13,2013-01-19 06:10:00,
2013-01-18 23:15:00,36.2,17.9,29.91,WNW,283,0.0,14.0,47,0.00,,,0.00,Wunderground v.1.13,2013-01-19 06:15:00,
2013-01-18 23:20:00,35.8,18.0,29.90,WNW,283,0.0,14.0,48,0.00,,,0.00,Wunderground v.1.13,2013-01-19 06:20:00,
2013-01-18 23:30:00,34.7,17.9,29.90,WNW,283,0.0,14.0,50,0.00,,,0.00,Wunderground v.1.13,2013-01-19 06:30:00,
2013-01-18 23:35:00,34.6,17.8,29.90,WNW,283,0.0,14.0,50,0.00,,,0.00,Wunderground v.1.13,2013-01-19 06:35:00,
2013-01-18 23:40:00,34.1,17.8,29.90,WNW,283,0.0,14.0,51,0.00,,,0.00,Wunderground v.1.13,2013-01-19 06:40:00,
2013-01-18 23:45:00,34.7,17.9,29.90,WNW,283,0.0,14.0,50,0.00,,,0.00,Wunderground v.1.13,2013-01-19 06:45:00,
2013-01-18 23:50:00,34.7,17.9,29.90,WNW,283,0.0,14.0,50,0.00,,,0.00,Wunderground v.1.13,2013-01-19 06:50:00,
2013-01-18 23:55:00,34.4,17.7,29.90,WNW,283,0.0,14.0,50,0.00,,,0.00,Wunderground v.1.13,2013-01-19 06:55:00,